K3TLB-13 Weather Reports


Display with metric or nautical units.
time (UTC)temp
F
wind
direction
speed
MPH
gust
MPH
rain 1hr
in
rain 24hr
in
rain mn
in
humidity
%
barometer
mb
20260509201456 63 71 0.0 1.0 0.00 0.00 0.00 59 1009.6
20260509201348 63 71 0.0 1.0 0.00 0.00 0.00 59 1009.6
20260509200849 63 71 0.0 1.0 0.00 0.00 0.00 61 1009.6
20260509200353 63 71 0.0 1.0 0.00 0.00 0.00 60 1009.5
20260509195848 63 82 0.0 2.0 0.00 0.00 0.00 60 1009.6
20260509195419 64 142 0.0 2.0 0.00 0.00 0.00 58 1009.6
20260509195348 64 142 0.0 2.0 0.00 0.00 0.00 58 1009.6
20260509194848 64 115 1.0 2.0 0.00 0.00 0.00 60 1009.6
20260509194348 64 98 1.0 5.0 0.00 0.00 0.00 59 1009.6
20260509193849 64 154 1.0 5.0 0.00 0.00 0.00 57 1009.7
20260509193348 64 194 1.0 3.0 0.00 0.00 0.00 58 1009.8
20260509192848 64 186 1.0 2.0 0.00 0.00 0.00 60 1009.8
20260509192348 64 90 3.0 9.0 0.00 0.00 0.00 57 1009.8
20260509191848 65 111 3.0 8.0 0.00 0.00 0.00 59 1009.9
20260509191348 64 63 3.0 8.0 0.00 0.00 0.00 61 1009.9
20260509190848 64 78 3.0 8.0 0.00 0.00 0.00 61 1009.8
20260509190348 64 28 3.0 9.0 0.00 0.00 0.00 62 1009.7
20260509185925 63 89 3.0 7.0 0.00 0.00 0.00 61 1009.9
20260509185848 63 89 3.0 7.0 0.00 0.00 0.00 61 1009.9
20260509185348 63 85 2.0 7.0 0.00 0.00 0.00 62 1009.8
20260509184848 63 78 1.0 4.0 0.00 0.00 0.00 64 1009.9
20260509184349 63 155 1.0 4.0 0.00 0.00 0.00 62 1010.1
20260509183848 62 165 1.0 4.0 0.00 0.00 0.00 61 1010.1
20260509183348 63 114 2.0 3.0 0.00 0.00 0.00 62 1010.2
20260509182849 63 40 3.0 9.0 0.00 0.00 0.00 61 1010.2
20260509182348 62 285 3.0 6.0 0.00 0.00 0.00 64 1010.4
20260509181848 62 232 3.0 8.0 0.00 0.00 0.00 63 1010.7
20260509181348 62 172 4.0 9.0 0.00 0.00 0.00 63 1010.8
20260509180849 61 187 3.0 7.0 0.00 0.00 0.00 67 1010.9
20260509180348 62 81 2.0 7.0 0.00 0.00 0.00 64 1011.1
20260509175848 61 182 2.0 5.0 0.00 0.00 0.00 69 1011.2
20260509175348 60 108 2.0 6.0 0.00 0.00 0.00 67 1011.1
20260509175101 60 88 1.0 7.0 0.00 0.00 0.00 67 1011.0
20260509174848 60 98 2.0 5.0 0.00 0.00 0.00 73 1011.1
20260509174348 60 88 1.0 7.0 0.00 0.00 0.00 67 1011.0
20260509173848 60 148 1.0 3.0 0.00 0.00 0.00 67 1011.4
20260509173434 60 128 1.0 4.0 0.00 0.00 0.00 67 1011.3
20260509173349 60 128 1.0 4.0 0.00 0.00 0.00 67 1011.3
20260509172848 60 28 0.0 1.0 0.00 0.00 0.00 70 1011.3
20260509172348 59 122 0.0 2.0 0.00 0.00 0.00 67 1011.5
20260509172043 59 286 0.0 1.0 0.00 0.00 0.00 69 1011.7
20260509171848 59 286 0.0 1.0 0.00 0.00 0.00 69 1011.7
20260509171720 59 257 0.0 1.0 0.00 0.00 0.00 69 1011.7
20260509171348 59 257 0.0 1.0 0.00 0.00 0.00 69 1011.7
20260509170848 59 126 0.0 1.0 0.00 0.00 0.00 69 1011.5
20260509170348 58 126 0.0 0.0 0.00 0.00 0.00 70 1011.4
20260509170228 58 126 0.0 1.0 0.00 0.00 0.00 69 1011.2
20260509165848 58 126 0.0 1.0 0.00 0.00 0.00 69 1011.2
20260509165348 58 127 0.0 1.0 0.00 0.00 0.00 72 1011.2
20260509165141 58 128 0.0 0.0 0.00 0.00 0.00 70 1011.2
20260509164848 58 128 0.0 0.0 0.00 0.00 0.00 70 1011.2
20260509164552 58 107 1.0 1.0 0.00 0.00 0.00 71 1011.4
20260509164348 58 107 1.0 1.0 0.00 0.00 0.00 71 1011.4
20260509163850 58 109 1.0 4.0 0.00 0.00 0.00 71 1011.4
20260509163619 58 173 0.0 3.0 0.00 0.00 0.00 72 1011.6
20260509163348 58 173 0.0 3.0 0.00 0.00 0.00 72 1011.6
20260509163025 58 163 1.0 5.0 0.00 0.00 0.00 73 1011.6
20260509162850 58 163 1.0 5.0 0.00 0.00 0.00 73 1011.6
20260509162432 58 167 1.0 5.0 0.00 0.00 0.00 72 1011.6
20260509162348 58 167 1.0 5.0 0.00 0.00 0.00 72 1011.6
20260509161849 58 126 1.0 2.0 0.00 0.00 0.00 73 1011.7
20260509161507 58 83 1.0 3.0 0.00 0.00 0.00 75 1011.7
20260509161348 58 83 1.0 3.0 0.00 0.00 0.00 75 1011.7
20260509160850 57 142 1.0 1.0 0.00 0.00 0.00 74 1011.8
20260509160510 57 110 1.0 3.0 0.00 0.00 0.00 74 1011.9
20260509160348 57 110 1.0 3.0 0.00 0.00 0.00 74 1011.9
20260509155849 57 206 2.0 4.0 0.00 0.00 0.00 74 1011.9
20260509155510 57 106 2.0 6.0 0.00 0.00 0.00 72 1011.9
20260509155348 57 106 2.0 6.0 0.00 0.00 0.00 72 1011.9
20260509155135 57 138 1.0 6.0 0.00 0.00 0.00 72 1011.8
20260509154848 57 138 1.0 6.0 0.00 0.00 0.00 72 1011.8
20260509154349 57 91 1.0 4.0 0.00 0.00 0.00 75 1011.8
20260509153849 57 146 2.0 2.0 0.00 0.00 0.00 77 1011.9
20260509153503 56 152 2.0 6.0 0.00 0.00 0.00 79 1012.0
20260509153348 56 152 2.0 6.0 0.00 0.00 0.00 79 1012.0
20260509153006 56 136 1.0 6.0 0.00 0.00 0.00 79 1012.0
20260509152848 56 136 1.0 6.0 0.00 0.00 0.00 79 1012.0
20260509152348 55 144 1.0 6.0 0.00 0.00 0.00 79 1012.0
20260509151848 55 117 1.0 5.0 0.00 0.00 0.00 81 1011.9
20260509151542 54 163 0.0 2.0 0.00 0.00 0.00 81 1011.8
20260509151505 54 163 0.0 2.0 0.00 0.00 0.00 81 1011.8
20260509151348 54 163 0.0 2.0 0.00 0.00 0.00 81 1011.8
20260509151003 54 146 0.0 1.0 0.00 0.00 0.00 83 1011.9
20260509150848 54 146 0.0 1.0 0.00 0.00 0.00 83 1011.9
20260509150348 54 95 0.0 2.0 0.00 0.00 0.00 83 1011.8
20260509145848 54 96 0.0 2.0 0.00 0.00 0.00 85 1011.8
20260509145348 53 170 0.0 1.0 0.00 0.00 0.00 84 1011.9
20260509144848 53 36 0.0 1.0 0.00 0.00 0.00 84 1011.8
20260509144349 53 350 0.0 1.0 0.00 0.00 0.00 84 1011.6
20260509143849 53 310 0.0 0.0 0.00 0.00 0.00 85 1011.8
20260509143348 53 310 0.0 0.0 0.00 0.00 0.00 85 1011.9
20260509142848 52 310 0.0 1.0 0.00 0.00 0.00 84 1011.8
20260509142542 53 60 1.0 2.0 0.00 0.00 0.00 81 1011.8
20260509142348 52 348 1.0 3.0 0.00 0.00 0.00 83 1011.7
20260509141848 53 60 1.0 2.0 0.00 0.00 0.00 81 1011.8
20260509141349 53 99 0.0 1.0 0.00 0.00 0.00 80 1011.9
20260509140950 54 126 1.0 1.0 0.00 0.00 0.00 78 1012.0
20260509140848 53 129 0.0 3.0 0.00 0.00 0.00 79 1012.0
20260509140351 54 126 1.0 1.0 0.00 0.00 0.00 78 1012.0
20260509135848 54 119 2.0 7.0 0.00 0.00 0.00 77 1012.0
20260509135351 54 103 2.0 4.0 0.00 0.00 0.00 77 1011.8
20260509134850 54 112 2.0 4.0 0.00 0.00 0.00 76 1011.7
20260509134455 54 112 2.0 6.0 0.00 0.00 0.00 75 1011.8
20260509134349 54 112 2.0 6.0 0.00 0.00 0.00 75 1011.8
20260509133849 55 108 2.0 6.0 0.00 0.00 0.00 73 1011.8
20260509133349 55 161 2.0 5.0 0.00 0.00 0.00 72 1011.9
20260509132849 55 126 1.0 4.0 0.00 0.00 0.00 71 1011.8
20260509132349 55 103 0.0 0.0 0.00 0.00 0.00 72 1011.6
20260509131849 55 103 0.0 0.0 0.00 0.00 0.00 70 1011.6
20260509131352 55 55 0.0 1.0 0.00 0.00 0.00 68 1011.5
20260509130849 55 296 1.0 1.0 0.00 0.00 0.00 68 1011.5
20260509130349 54 123 2.0 6.0 0.00 0.00 0.00 68 1011.6
20260509125849 54 96 3.0 7.0 0.00 0.00 0.00 68 1011.6
20260509125456 54 78 3.0 4.0 0.00 0.00 0.00 70 1011.7
20260509125349 54 78 3.0 4.0 0.00 0.00 0.00 70 1011.7
20260509124849 54 110 3.0 6.0 0.00 0.00 0.00 69 1011.4
20260509124350 54 128 1.0 7.0 0.00 0.00 0.00 69 1011.5
20260509123849 54 115 1.0 4.0 0.00 0.00 0.00 72 1011.3
20260509123423 53 211 2.0 4.0 0.00 0.00 0.00 73 1011.2
20260509123349 53 211 2.0 4.0 0.00 0.00 0.00 73 1011.2
20260509122849 53 284 2.0 7.0 0.00 0.00 0.00 74 1011.5
20260509122617 53 254 2.0 3.0 0.00 0.00 0.00 74 1011.3
20260509122427 53 254 2.0 3.0 0.00 0.00 0.00 74 1011.3
20260509122349 53 254 2.0 3.0 0.00 0.00 0.00 74 1011.3
20260509121849 53 92 2.0 4.0 0.00 0.00 0.00 73 1011.3
20260509121349 53 92 2.0 4.0 0.00 0.00 0.00 73 1011.3
20260509120849 53 117 2.0 2.0 0.00 0.00 0.00 75 1011.3
20260509120349 53 95 2.0 3.0 0.00 0.00 0.00 77 1011.1
20260509115850 52 109 0.0 3.0 0.00 0.00 0.00 76 1011.4
20260509115423 52 103 0.0 2.0 0.00 0.00 0.00 78 1011.4
20260509115349 52 103 0.0 2.0 0.00 0.00 0.00 78 1011.4
20260509114849 52 82 0.0 0.0 0.00 0.00 0.00 78 1011.3
20260509114349 51 80 1.0 1.0 0.00 0.00 0.00 78 1011.2
20260509113849 51 94 1.0 2.0 0.00 0.00 0.00 79 1011.3
20260509113349 51 111 1.0 2.0 0.00 0.00 0.00 79 1011.2
20260509112849 51 101 0.0 2.0 0.00 0.00 0.00 80 1011.2
20260509112632 51 13 1.0 1.0 0.00 0.00 0.00 80 1011.2
20260509112505 51 13 1.0 1.0 0.00 0.00 0.00 80 1011.2
20260509112349 51 13 1.0 1.0 0.00 0.00 0.00 80 1011.2
20260509111849 51 346 1.0 2.0 0.00 0.00 0.00 79 1011.3
20260509111351 51 346 0.0 2.0 0.00 0.00 0.00 78 1011.3
20260509111005 51 92 0.0 1.0 0.00 0.00 0.00 79 1011.4
20260509110850 51 92 0.0 1.0 0.00 0.00 0.00 79 1011.4
20260509110508 51 9 1.0 1.0 0.00 0.00 0.00 80 1011.4
20260509110349 51 9 1.0 1.0 0.00 0.00 0.00 80 1011.4
20260509105849 51 309 1.0 3.0 0.00 0.00 0.00 79 1011.2
20260509105514 51 302 0.0 2.0 0.00 0.00 0.00 77 1011.0
20260509105350 51 302 0.0 2.0 0.00 0.00 0.00 77 1011.0
20260509105015 51 114 0.0 1.0 0.00 0.00 0.00 74 1011.0
20260509104850 51 114 0.0 1.0 0.00 0.00 0.00 74 1011.0
20260509104349 51 99 1.0 2.0 0.00 0.00 0.00 78 1010.9
20260509103849 52 335 1.0 4.0 0.00 0.00 0.00 75 1010.8
20260509103513 53 267 1.0 1.0 0.00 0.00 0.00 68 1010.8
20260509103349 53 267 1.0 1.0 0.00 0.00 0.00 68 1010.8
20260509102511 52 86 1.0 2.0 0.00 0.00 0.00 70 1010.7
20260509102349 52 86 1.0 2.0 0.00 0.00 0.00 70 1010.7
20260509102015 52 123 2.0 3.0 0.00 0.00 0.00 71 1010.9
20260509101849 52 123 2.0 3.0 0.00 0.00 0.00 71 1010.9
20260509101516 52 280 2.0 8.0 0.00 0.00 0.00 73 1011.1
20260509101439 52 280 2.0 8.0 0.00 0.00 0.00 73 1011.1
20260509101349 52 280 2.0 8.0 0.00 0.00 0.00 73 1011.1
20260509101014 53 82 1.0 4.0 0.00 0.00 0.00 67 1010.5
20260509100852 53 82 1.0 4.0 0.00 0.00 0.00 67 1010.5
20260509100350 52 131 1.0 6.0 0.00 0.00 0.00 69 1010.6
20260509095850 52 110 1.0 4.0 0.00 0.00 0.00 70 1010.5
20260509095349 51 101 0.0 1.0 0.00 0.00 0.00 73 1010.7
20260509094930 49 112 0.0 1.0 0.00 0.00 0.00 78 1010.8
20260509094850 49 112 0.0 1.0 0.00 0.00 0.00 78 1010.8
20260509094422 49 336 0.0 0.0 0.00 0.00 0.00 83 1011.0
20260509094349 49 336 0.0 0.0 0.00 0.00 0.00 83 1011.0
20260509093850 50 336 0.0 1.0 0.00 0.00 0.00 81 1010.9
20260509093349 49 106 0.0 0.0 0.00 0.00 0.00 78 1010.8
20260509092849 49 227 0.0 1.0 0.00 0.00 0.00 84 1010.9
20260509092510 49 184 0.0 1.0 0.00 0.00 0.00 84 1011.0
20260509092349 49 184 0.0 1.0 0.00 0.00 0.00 84 1011.0
20260509091850 49 322 0.0 0.0 0.00 0.00 0.00 84 1011.0
20260509091349 49 83 0.0 0.0 0.00 0.00 0.00 84 1010.9
20260509090849 49 84 0.0 0.0 0.00 0.00 0.00 84 1010.9
20260509090349 49 83 0.0 0.0 0.00 0.00 0.00 83 1010.9
20260509085849 49 84 0.0 0.0 0.00 0.00 0.00 83 1010.9
20260509085511 49 83 0.0 0.0 0.00 0.00 0.00 81 1010.8
20260509085349 49 83 0.0 0.0 0.00 0.00 0.00 81 1010.8
20260509084850 49 83 0.0 0.0 0.00 0.00 0.00 81 1011.0
20260509084510 49 84 0.0 0.0 0.00 0.00 0.00 81 1010.9
20260509084349 49 84 0.0 0.0 0.00 0.00 0.00 81 1010.9
20260509083850 49 84 0.0 0.0 0.00 0.00 0.00 81 1010.9
20260509083459 49 84 0.0 0.0 0.00 0.00 0.00 81 1011.1
20260509083349 49 84 0.0 0.0 0.00 0.00 0.00 81 1011.1
20260509082850 49 84 0.0 0.0 0.00 0.00 0.00 80 1011.2
20260509082349 49 84 0.0 0.0 0.00 0.00 0.00 80 1011.2
20260509081850 49 84 0.0 0.0 0.00 0.00 0.00 80 1011.0
20260509081510 49 84 0.0 0.0 0.00 0.00 0.00 80 1011.1
20260509081349 49 84 0.0 0.0 0.00 0.00 0.00 80 1011.1
20260509080850 49 84 0.0 0.0 0.00 0.00 0.00 80 1011.1
20260509080513 49 84 0.0 0.0 0.00 0.00 0.00 80 1011.2
20260509080350 49 84 0.0 0.0 0.00 0.00 0.00 80 1011.2
20260509075851 49 84 0.0 0.0 0.00 0.00 0.00 79 1011.0
20260509075349 49 84 0.0 0.0 0.00 0.00 0.00 80 1011.2
20260509075016 49 84 0.0 0.0 0.00 0.00 0.00 80 1011.3
20260509074850 49 84 0.0 0.0 0.00 0.00 0.00 80 1011.3
20260509074350 49 84 0.0 0.0 0.00 0.00 0.00 80 1011.2
20260509073850 49 84 0.0 0.0 0.00 0.00 0.00 80 1011.3
20260509073513 49 83 0.0 1.0 0.00 0.00 0.00 80 1011.3
20260509073349 49 83 0.0 1.0 0.00 0.00 0.00 80 1011.3
20260509072849 49 105 0.0 1.0 0.00 0.00 0.00 81 1011.2
20260509072349 49 337 0.0 0.0 0.00 0.00 0.00 81 1011.3
20260509071849 49 333 0.0 1.0 0.00 0.00 0.00 81 1011.2
20260509071349 49 326 0.0 0.0 0.00 0.00 0.00 80 1011.1
20260509070849 49 321 0.0 0.0 0.00 0.00 0.00 80 1011.1
20260509070349 49 321 0.0 1.0 0.00 0.00 0.00 80 1011.2
20260509065849 50 321 0.0 1.0 0.00 0.00 0.00 79 1011.2
20260509065349 50 90 0.0 0.0 0.00 0.00 0.00 77 1011.2
20260509065106 50 90 0.0 0.0 0.00 0.00 0.00 77 1011.2
20260509064850 50 90 0.0 0.0 0.00 0.00 0.00 77 1011.2
20260509064349 50 91 0.0 0.0 0.00 0.00 0.00 76 1011.2
20260509063850 51 90 0.0 0.0 0.00 0.00 0.00 76 1011.2
20260509063349 51 91 0.0 0.0 0.00 0.00 0.00 75 1011.3
20260509062850 50 91 0.0 0.0 0.00 0.00 0.00 76 1011.4
20260509062350 50 91 0.0 0.0 0.00 0.00 0.00 76 1011.4
20260509061851 50 91 0.0 0.0 0.00 0.00 0.00 76 1011.4
20260509061351 50 91 0.0 1.0 0.00 0.00 0.00 76 1011.6
20260509060852 50 76 0.0 1.0 0.00 0.00 0.00 78 1011.7
20260509060351 50 38 0.0 0.0 0.00 0.00 0.00 78 1011.6
20260509055850 50 38 0.0 0.0 0.00 0.00 0.00 77 1011.6
20260509055350 50 38 0.0 0.0 0.00 0.00 0.00 77 1011.7
20260509055008 50 38 0.0 0.0 0.00 0.00 0.00 77 1011.5
20260509054850 50 38 0.0 0.0 0.00 0.00 0.00 77 1011.5
20260509054522 50 38 0.0 0.0 0.00 0.00 0.00 77 1011.6
20260509054350 50 38 0.0 0.0 0.00 0.00 0.00 77 1011.6
20260509054047 50 38 0.0 0.0 0.00 0.00 0.00 78 1011.6
20260509053850 50 38 0.0 0.0 0.00 0.00 0.00 78 1011.6
20260509053350 50 38 0.0 0.0 0.00 0.00 0.00 78 1011.6
20260509053108 51 38 0.0 0.0 0.00 0.00 0.00 73 1011.5
20260509052851 51 38 0.0 0.0 0.00 0.00 0.00 73 1011.5
20260509052350 51 66 0.0 0.0 0.00 0.00 0.00 71 1011.4
20260509052136 51 66 0.0 0.0 0.00 0.00 0.00 72 1011.4
20260509051930 51 66 0.0 0.0 0.00 0.00 0.00 72 1011.4
20260509051850 51 66 0.0 0.0 0.00 0.00 0.00 72 1011.4
20260509051712 51 66 0.0 0.0 0.00 0.00 0.00 72 1011.6
20260509051352 51 66 0.0 0.0 0.00 0.00 0.00 72 1011.6
20260509050850 51 66 0.0 0.0 0.00 0.00 0.00 73 1011.6
20260509050735 50 66 0.0 0.0 0.00 0.00 0.00 74 1011.9
20260509050510 50 66 0.0 0.0 0.00 0.00 0.00 74 1011.9
20260509050350 50 66 0.0 0.0 0.00 0.00 0.00 74 1011.9
20260509050310 50 66 0.0 0.0 0.00 0.00 0.00 75 1011.9
20260509050013 50 66 0.0 0.0 0.00 0.00 0.00 75 1011.9
20260509045850 50 66 0.0 0.0 0.00 0.00 0.00 75 1011.9
20260509045510 50 66 0.0 0.0 0.00 0.00 0.00 77 1011.9
20260509045350 50 66 0.0 0.0 0.00 0.00 0.00 77 1011.9
20260509044850 51 66 0.0 0.0 0.00 0.00 0.00 76 1012.0
20260509044722 50 66 0.0 0.0 0.00 0.00 0.00 75 1011.9
20260509044350 50 66 0.0 0.0 0.00 0.00 0.00 75 1011.9
20260509044016 51 66 0.0 0.0 0.00 0.00 0.00 75 1012.0
20260509043850 51 66 0.0 0.0 0.00 0.00 0.00 75 1012.0
20260509043703 51 66 0.0 0.0 0.00 0.00 0.00 75 1012.0
20260509043511 51 66 0.0 0.0 0.00 0.00 0.00 75 1012.0
20260509043350 51 66 0.0 0.0 0.00 0.00 0.00 75 1012.0
20260509042852 51 66 0.0 0.0 0.00 0.00 0.00 73 1012.0
20260509042508 51 59 0.0 0.0 0.00 0.00 0.00 74 1012.0
20260509042350 51 59 0.0 0.0 0.00 0.00 0.00 74 1012.0
20260509041850 51 32 0.0 0.0 0.00 0.00 0.00 74 1012.0
20260509041514 51 32 0.0 0.0 0.00 0.00 0.00 74 1012.1
20260509041350 51 32 0.0 0.0 0.00 0.00 0.00 74 1012.1
20260509040851 51 32 0.0 0.0 0.00 0.00 0.00 73 1012.0
20260509040350 51 32 0.0 0.0 0.00 0.00 0.00 73 1012.1
20260509035850 52 97 0.0 0.0 0.00 0.00 0.00 71 1012.1
20260509035350 52 97 0.0 0.0 0.00 0.00 0.00 71 1012.0
20260509035012 52 161 0.0 1.0 0.00 0.00 0.00 72 1012.1
20260509034850 52 161 0.0 1.0 0.00 0.00 0.00 72 1012.1
20260509034350 53 23 1.0 1.0 0.00 0.00 0.00 70 1012.2
20260509034016 53 94 2.0 2.0 0.00 0.00 0.00 70 1012.1
20260509033850 53 94 2.0 2.0 0.00 0.00 0.00 70 1012.1
20260509033350 53 98 1.0 2.0 0.00 0.00 0.00 70 1012.3
20260509032927 53 92 0.0 2.0 0.00 0.00 0.00 71 1012.3
20260509032850 53 92 0.0 2.0 0.00 0.00 0.00 71 1012.3
20260509032350 53 346 1.0 0.0 0.00 0.00 0.00 73 1012.3
20260509031850 53 96 1.0 2.0 0.00 0.00 0.00 71 1012.3
20260509031350 54 97 1.0 2.0 0.00 0.00 0.00 71 1012.4
20260509030850 54 295 1.0 2.0 0.00 0.00 0.00 73 1012.6
20260509030510 55 92 0.0 3.0 0.00 0.00 0.00 68 1012.4
20260509030350 55 92 0.0 3.0 0.00 0.00 0.00 68 1012.4
20260509025850 55 92 0.0 3.0 0.00 0.00 0.00 68 1012.4
20260509025621 55 46 0.0 0.0 0.00 0.00 0.00 68 1012.5
20260509025509 55 46 0.0 0.0 0.00 0.00 0.00 68 1012.5
20260509025350 55 46 0.0 0.0 0.00 0.00 0.00 68 1012.5
20260509024850 55 98 0.0 0.0 0.00 0.00 0.00 67 1012.5
20260509024350 55 98 0.0 0.0 0.00 0.00 0.00 66 1012.5
20260509023850 55 98 0.0 0.0 0.00 0.00 0.00 67 1012.6
20260509023350 55 94 0.0 0.0 0.00 0.00 0.00 67 1012.5
20260509022850 56 317 0.0 0.0 0.00 0.00 0.00 70 1012.7
20260509022350 57 156 0.0 0.0 0.00 0.00 0.00 61 1012.6
20260509022004 57 156 0.0 0.0 0.00 0.00 0.00 59 1012.6
20260509021851 57 156 0.0 0.0 0.00 0.00 0.00 59 1012.6
20260509021512 56 155 0.0 0.0 0.00 0.00 0.00 60 1012.5
20260509021350 56 155 0.0 0.0 0.00 0.00 0.00 60 1012.5
20260509021011 56 258 0.0 0.0 0.00 0.00 0.00 61 1012.5
20260509020850 56 258 0.0 0.0 0.00 0.00 0.00 61 1012.5
20260509020350 56 259 0.0 0.0 0.00 0.00 0.00 64 1012.5
20260509015850 57 250 0.0 0.0 0.00 0.00 0.00 64 1012.4
20260509015350 58 92 0.0 0.0 0.00 0.00 0.00 60 1012.2
20260509014850 58 90 0.0 0.0 0.00 0.00 0.00 53 1012.1
20260509014436 58 90 0.0 0.0 0.00 0.00 0.00 53 1012.3
20260509014350 58 90 0.0 0.0 0.00 0.00 0.00 53 1012.3
20260509014222 58 90 0.0 1.0 0.00 0.00 0.00 53 1012.3
20260509014016 58 90 0.0 1.0 0.00 0.00 0.00 53 1012.3
20260509014000 59 90 0.0 2.0 0.00 0.00 0.00 52 1012.3
20260509013850 58 90 0.0 1.0 0.00 0.00 0.00 53 1012.3
20260509013350 59 90 0.0 2.0 0.00 0.00 0.00 52 1012.3
20260509013027 58 148 0.0 1.0 0.00 0.00 0.00 52 1012.4
20260509012850 58 148 0.0 1.0 0.00 0.00 0.00 52 1012.4
20260509012350 59 103 1.0 1.0 0.00 0.00 0.00 53 1012.4
20260509011852 58 161 1.0 3.0 0.00 0.00 0.00 56 1012.5
20260509011350 59 133 2.0 2.0 0.00 0.00 0.00 52 1012.4
20260509010850 59 101 3.0 4.0 0.00 0.00 0.00 51 1012.1
20260509010510 59 113 2.0 6.0 0.00 0.00 0.00 52 1012.0
20260509010350 59 113 2.0 6.0 0.00 0.00 0.00 52 1012.0
20260509010110 59 112 1.0 3.0 0.00 0.00 0.00 51 1012.0
20260509005852 59 112 1.0 3.0 0.00 0.00 0.00 51 1012.0
20260509005510 59 117 1.0 2.0 0.00 0.00 0.00 52 1012.0
20260509005350 59 117 1.0 2.0 0.00 0.00 0.00 52 1012.0
20260509005012 59 84 0.0 1.0 0.00 0.00 0.00 53 1012.0
20260509004850 59 84 0.0 1.0 0.00 0.00 0.00 53 1012.0
20260509004350 59 84 0.0 0.0 0.00 0.00 0.00 53 1011.9
20260509004144 59 69 0.0 0.0 0.00 0.00 0.00 51 1011.9
20260509003850 59 69 0.0 0.0 0.00 0.00 0.00 51 1011.9
20260509003511 60 329 1.0 1.0 0.00 0.00 0.00 51 1011.8
20260509003350 60 329 1.0 1.0 0.00 0.00 0.00 51 1011.8
20260509003014 60 304 1.0 2.0 0.00 0.00 0.00 49 1011.9
20260509002850 60 304 1.0 2.0 0.00 0.00 0.00 49 1011.9
20260509002513 60 321 0.0 2.0 0.00 0.00 0.00 48 1011.8
20260509002350 60 321 0.0 2.0 0.00 0.00 0.00 48 1011.8
20260509002005 61 320 0.0 0.0 0.00 0.00 0.00 49 1011.8
20260509001850 61 320 0.0 0.0 0.00 0.00 0.00 49 1011.8
20260509001351 61 295 0.0 0.0 0.00 0.00 0.00 48 1011.8
20260509000935 62 293 1.0 2.0 0.00 0.00 0.00 46 1011.9
20260509000850 62 293 1.0 2.0 0.00 0.00 0.00 46 1011.9
20260509000432 62 311 2.0 3.0 0.00 0.00 0.00 45 1011.8
20260509000350 62 311 2.0 3.0 0.00 0.00 0.00 45 1011.8
20260508235850 62 303 2.0 4.0 0.00 0.00 0.00 45 1011.9
20260508235350 63 290 2.0 4.0 0.00 0.00 0.00 45 1011.8
20260508234850 63 294 2.0 3.0 0.00 0.00 0.00 42 1011.7
20260508234350 64 284 1.0 2.0 0.00 0.00 0.00 43 1011.7
20260508233850 64 292 1.0 2.0 0.00 0.00 0.00 43 1011.6
20260508233351 65 291 2.0 3.0 0.00 0.00 0.00 43 1011.7
20260508232850 65 263 2.0 4.0 0.00 0.00 0.00 41 1011.6
20260508232350 65 260 1.0 2.0 0.00 0.00 0.00 41 1011.7
20260508232100 66 266 1.0 3.0 0.00 0.00 0.00 43 1011.6
20260508231851 66 266 1.0 3.0 0.00 0.00 0.00 43 1011.6
20260508231350 65 269 3.0 3.0 0.00 0.00 0.00 42 1011.4
20260508230851 64 272 3.0 3.0 0.00 0.00 0.00 40 1011.4
20260508230351 65 284 4.0 6.0 0.00 0.00 0.00 41 1011.4
20260508225926 65 254 3.0 6.0 0.00 0.00 0.00 40 1011.4
20260508225851 65 254 3.0 6.0 0.00 0.00 0.00 40 1011.4
20260508225430 65 266 2.0 5.0 0.00 0.00 0.00 39 1011.6
20260508225351 65 250 3.0 7.0 0.00 0.00 0.00 41 1011.5
20260508224851 65 266 2.0 5.0 0.00 0.00 0.00 39 1011.6
20260508224353 66 258 2.0 5.0 0.00 0.00 0.00 41 1011.5
20260508224247 66 298 3.0 8.0 0.00 0.00 0.00 38 1011.6
20260508223851 66 298 3.0 8.0 0.00 0.00 0.00 38 1011.6
20260508223351 66 249 4.0 8.0 0.00 0.00 0.00 39 1011.5
20260508222851 66 260 4.0 7.0 0.00 0.00 0.00 41 1011.5
20260508222351 65 263 5.0 7.0 0.00 0.00 0.00 41 1011.5
20260508221851 66 293 7.0 8.0 0.00 0.00 0.00 39 1011.6
20260508221351 66 267 10.0 12.0 0.00 0.00 0.00 37 1011.5
20260508220851 66 244 11.0 14.0 0.00 0.00 0.00 36 1011.4
20260508220351 66 248 10.0 15.0 0.00 0.00 0.00 36 1011.5
20260508215852 66 265 8.0 15.0 0.00 0.00 0.00 39 1011.3
20260508215335 65 282 10.0 16.0 0.00 0.00 0.00 38 1011.4
20260508214851 65 282 10.0 16.0 0.00 0.00 0.00 38 1011.4
20260508214351 65 285 9.0 15.0 0.00 0.00 0.00 36 1011.4
20260508213855 65 271 6.0 20.0 0.00 0.00 0.00 37 1011.4
20260508213351 65 242 6.0 9.0 0.00 0.00 0.00 41 1011.4
20260508212854 65 238 7.0 11.0 0.00 0.00 0.00 40 1011.3
20260508212352 65 241 7.0 13.0 0.00 0.00 0.00 38 1011.4
20260508211852 65 231 6.0 14.0 0.00 0.00 0.00 37 1011.3
20260508211352 65 271 5.0 9.0 0.00 0.00 0.00 40 1011.3
20260508210851 65 269 6.0 9.0 0.00 0.00 0.00 36 1011.3
20260508210352 65 265 8.0 13.0 0.00 0.00 0.00 36 1011.3
20260508210024 65 269 8.0 15.0 0.00 0.00 0.00 37 1011.2
20260508205851 65 269 8.0 15.0 0.00 0.00 0.00 37 1011.2
20260508205511 65 277 8.0 16.0 0.00 0.00 0.00 37 1011.3
20260508205352 65 277 8.0 16.0 0.00 0.00 0.00 37 1011.3
20260508205016 65 272 7.0 11.0 0.00 0.00 0.00 40 1011.4
20260508204851 65 272 7.0 11.0 0.00 0.00 0.00 40 1011.4
20260508204353 65 253 8.0 12.0 0.00 0.00 0.00 38 1011.4
20260508204326 65 221 9.0 16.0 0.00 0.00 0.00 35 1011.5
20260508203851 65 238 9.0 13.0 0.00 0.00 0.00 36 1011.3
20260508203351 65 221 9.0 16.0 0.00 0.00 0.00 35 1011.5
20260508202851 66 248 10.0 14.0 0.00 0.00 0.00 37 1011.6
20260508202352 66 247 12.0 15.0 0.00 0.00 0.00 37 1011.5
20260508201851 66 239 14.0 21.0 0.00 0.00 0.00 34 1011.5